Home > Weather > Alpena > Past weeks

Flag for USA Past Weather in Alpena, Michigan, USA — Yesterday and Last 2 Weeks

Now
76 °F

Sunny.


Feels Like: 77 °F
Forecast: 53 / 66 °F
Wind: 8 mph from Northwest

Location: Alpena County Regional Airport

Current Time: May 30, 2016 at 8:14:54 PM

Latest Report: May 30, 2016 at 6:54 PM


Visibility: 10 mi

Pressure: 29.93 "Hg

Humidity: 33%

Dew Point: 45 °F

Location of AlpenaLocation

Past Weather in Alpena — Graph

°F

Alpena Temperature Yesterday

Maximum temperature yesterday: 85 °F (at 2:54 PM)
Minimum temperature yesterday: 67 °F (at 11:54 PM)
Average temperature yesterday: 75 °F

High & Low Weather Summary for the Past Weeks

 TemperatureHumidityPressure
High89 °F (May 24, 1:54 PM)100% (May 27, 6:54 AM)30.29 "Hg (May 27, 6:54 AM)
Low31 °F (May 16, 1:54 AM)17% (May 22, 4:54 PM)29.79 "Hg (May 26, 4:54 PM)
Average60 °F61%30.04 "Hg
* Reported May 15 5:54 PM — May 30 5:54 PM, Alpena, Weather by CustomWeather, © 2016

Note: Actual official high and low records may vary slightly from our data, if they occured in-between our weather recording intervals... More about our weather records

Advertising

Alpena Weather History for the Previous 24 Hours

Scroll right to see more
 ConditionsComfort  
Time TempWeatherWind HumidityBarometerVisibility
5:54 PM
Mon, May 30
77 °FSunny.10 mph33%29.93 "Hg10 mi
4:54 PM77 °FPassing clouds.12 mph32%29.94 "Hg10 mi
3:54 PM79 °FSunny.15 mph31%29.93 "Hg10 mi
2:54 PM78 °FScattered clouds.10 mph36%29.94 "Hg10 mi
1:54 PM76 °FPartly sunny.9 mph42%29.93 "Hg10 mi
12:54 PM76 °FBroken clouds.12 mph43%29.93 "Hg10 mi
11:54 AM75 °FScattered clouds.12 mph45%29.93 "Hg10 mi
10:54 AM72 °FPassing clouds.9 mph52%29.94 "Hg10 mi
9:54 AM70 °FPassing clouds.9 mph59%29.94 "Hg10 mi
8:54 AM67 °FPassing clouds.9 mph68%29.94 "Hg10 mi
7:54 AM64 °FSunny.6 mph75%29.93 "Hg10 mi
6:54 AM62 °FSunny.6 mph80%29.91 "Hg10 mi
5:54 AM62 °FPassing clouds.7 mph83%29.90 "Hg10 mi
4:54 AM62 °FPassing clouds.5 mph86%29.88 "Hg10 mi
3:54 AM63 °FPassing clouds.3 mph84%29.87 "Hg10 mi
2:54 AM63 °FClear.No wind81%29.87 "Hg10 mi
1:54 AM65 °FClear.6 mph76%29.87 "Hg10 mi
12:54 AM66 °FPassing clouds.7 mph73%29.86 "Hg10 mi
11:54 PM
Sun, May 29
67 °FClear.7 mph71%29.86 "Hg10 mi
10:54 PM69 °FPassing clouds.6 mph66%29.87 "Hg10 mi
9:54 PM71 °FMore clouds than sun.9 mph59%29.87 "Hg10 mi
8:54 PM72 °FPartly sunny.7 mph64%29.85 "Hg10 mi
Weather by CustomWeather, © 2016

See weather overviewHow to use our weather pages